Lid_Strength_Index
-1 -0 0 2 6 6 8 8 6 7 7 4 4 5 5 4 5 10 1 -0 -0 -0 -1 -1 -1 -1 -1 -1 -1 -1 -1 -1 -1 -1 -1 -1 -1 -1 -1 -1 -1 -1 -1 -1 -1 -1 -1 -1 -1
2 1 3 4 7 9 8 6 7 6 5 4 4 4 5 5 3 3 2 -0 -0 -1 -1 -1 -1 -1 -1 -1 -1 -1 -1 -1 -1 -1 -1 -1 -1 -1 -1 -1 -1 -1 -1 -1 -1 -1 -1 -1 -1
2 2 5 5 7 9 8 6 5 5 4 5 5 4 4 5 3 2 0 -0 -0 -1 -1 -1 -1 -1 -1 -1 -1 -1 -1 -1 -1 -1 -1 -2 -1 -1 -1 -1 -1 -1 -1 -1 -1 -1 -1 -1 -1
3 4 5 7 8 6 6 5 5 5 4 4 4 6 3 2 2 1 -0 -0 -0 -0 -1 -1 -1 -1 -1 -1 -1 -1 -1 -1 -1 -2 -2 -2 -1 -1 -1 -1 -1 -1 -1 -1 -1 -1 -1 -1 -1
3 5 7 7 7 6 5 4 4 5 5 5 4 6 5 2 1 0 0 -0 0 -0 -1 -1 -1 -1 -1 -1 -1 -1 -1 -1 -1 -2 -2 -1 -1 -1 -1 -1 -1 -1 -1 -1 -1 -1 -1 -1 -1
4 5 8 9 7 5 5 4 4 4 4 4 5 5 5 1 1 1 0 0 -0 -0 -1 -1 -1 -1 -1 -1 -1 -1 -1 -1 -1 -1 -1 -1 -1 -1 -1 -1 -1 -1 -1 -1 -1 -1 -1 -1 -1
4 5 7 7 7 6 5 3 4 4 4 5 4 6 4 3 1 0 0 -0 -0 -0 -1 -1 -1 -1 -1 -1 -1 -1 -1 -1 -1 -1 -1 -1 -1 -1 -1 -1 -1 -1 -1 -1 -1 -1 -1 -1 -1
3 5 7 6 7 7 4 4 3 4 4 2 3 6 5 3 1 0 0 0 0 -0 -0 -1 -1 -1 -1 -1 -1 -1 -1 -1 -1 -1 -1 -1 -1 -1 -1 -2 -1 -1 -1 -1 -1 -1 -2 -1 -0
2 6 7 7 7 6 4 5 3 3 3 3 3 3 2 1 1 1 1 1 1 0 -0 -1 -1 -1 -1 -1 -1 -1 -1 -1 -1 -1 -1 -1 -1 -2 -2 -1 -1 -1 -1 -1 -1 -1 -3 -2 -2
4 6 6 5 5 5 4 4 4 4 4 4 3 2 2 2 2 2 2 2 2 1 0 -0 -0 -1 -1 -1 -1 -2 -2 -2 -2 -2 -2 -1 -2 -1 -1 -1 -1 -1 -1 -2 -2 -3 -4 -3 -1
4 6 5 4 4 4 4 5 3 4 5 4 4 3 3 2 2 2 2 2 1 1 0 -0 -0 -1 -1 -1 -1 -1 -1 -1 -1 -2 -2 -2 -1 -1 -1 -1 -1 -2 -2 -1 -2 -2 -1 -1 -1
6 4 4 4 4 4 5 4 5 4 4 3 3 2 3 3 3 2 2 2 1 1 0 -0 -0 -1 -1 -1 -1 -1 -1 -1 -1 -1 -2 -2 -1 -1 -2 -1 -1 -2 -2 -2 -2 -1 -2 -1 -1
5 5 4 4 4 4 3 4 4 5 5 2 3 3 3 3 3 2 2 1 1 1 1 0 -0 -0 -1 -1 -1 -1 -1 -1 -1 -1 -2 -1 -1 -1 -1 -1 -1 -1 -2 -1 -1 -1 -1 -1 -0
4 4 4 4 4 4 4 4 4 4 4 4 3 3 2 3 2 2 2 2 1 1 1 0 -0 -0 -1 -1 -1 -1 -1 -1 -1 -1 -1 -1 -1 -2 -1 -1 -2 -2 -1 -1 -1 -1 -1 -0 -0
4 6 5 4 4 5 4 6 5 3 4 4 4 3 3 2 2 2 2 2 1 1 0 0 -0 -0 -0 -1 -1 -1 -1 -1 -1 -1 -2 -2 -2 -2 -3 -1 -1 -1 -2 -1 -1 -1 -1 -0 -0
6 5 8 5 5 4 5 8 5 3 4 5 5 4 3 2 2 2 1 1 1 1 1 0 0 -0 -0 -1 -1 -1 -1 -1 -1 -1 -1 -2 -2 -2 -3 -1 -1 -1 -2 -1 -1 -0 -0 -0 -1
6 9 8 7 5 5 5 7 5 3 3 4 4 4 3 2 2 2 1 1 1 0 1 1 -0 0 0 -0 -0 -1 -1 -1 -1 -1 -1 -2 -2 -1 -2 -0 -1 -2 -1 -1 -1 -1 -1 -0 -1
9 8 8 8 6 5 6 6 5 4 4 4 3 3 3 3 3 2 1 1 1 0 0 0 0 0 -0 -0 -0 -0 -0 -1 -1 -1 -1 -2 -1 -1 -2 -1 -1 -1 -1 -0 -1 -1 -1 -0 -0
7 7 8 7 5 6 6 6 5 4 4 4 4 3 3 3 3 2 2 2 1 1 1 1 1 1 1 1 1 1 1 0 -0 0 -1 -1 -1 -1 -2 -1 -1 -2 -1 -1 -1 -1 -1 0 -1
7 8 8 6 5 6 6 7 5 5 4 4 4 3 3 3 3 2 2 2 2 1 1 1 1 0 1 1 0 0 0 -0 -0 0 -1 -1 -1 -2 -2 -1 -1 -2 -0 -1 -1 -1 -0 0 -0
7 8 8 8 6 6 7 8 6 5 4 4 3 3 3 3 3 2 3 2 2 2 2 1 1 1 0 -0 0 0 -0 -0 0 0 0 -0 -1 -1 -3 -2 -1 -1 -1 -0 -1 -1 -0 1 0
9 6 7 7 8 10 6 11 8 6 6 5 4 3 3 3 2 2 2 3 2 2 2 1 1 1 0 -0 0 1 2 2 1 0 0 -0 -1 -1 -2 -2 -2 -1 -1 -1 -1 -1 -1 0 1
7 6 6 7 8 8 8 10 8 6 7 6 4 4 3 3 2 2 3 2 2 1 2 1 1 1 0 0 0 1 1 1 0 0 -0 -0 -1 -2 -1 -1 -2 -1 -1 -1 -1 -1 -1 -0 0
5 6 7 7 8 11 9 10 10 8 7 5 4 4 3 3 2 2 1 2 2 2 1 1 1 2 1 1 0 1 1 1 1 1 1 1 0 -0 -1 -1 -1 -2 -1 -1 -1 -1 -1 -1 -0
6 8 12 12 12 13 8 10 9 6 5 5 5 4 3 3 2 2 2 2 2 2 2 2 1 2 1 1 1 1 1 1 1 1 1 1 1 0 -0 -1 -1 -1 -1 -1 -1 -1 -1 -1 -0
7 8 11 15 14 12 8 11 9 5 5 4 4 4 4 3 3 3 2 2 2 1 2 2 2 2 1 2 1 1 1 1 1 1 1 1 0 0 -1 -1 -1 -1 -1 -1 -1 -0 -0 -1 -0
8 9 7 11 10 12 10 9 7 5 6 5 5 4 4 4 3 3 2 2 2 1 1 1 2 2 1 1 1 1 1 1 1 0 -0 0 -1 -0 -0 -1 -1 -1 -1 -1 -1 -0 -1 -1 -1
7 6 10 10 16 16 12 11 10 8 7 6 5 5 5 4 3 3 2 2 2 1 1 1 1 2 1 1 1 1 1 0 0 0 0 0 -0 -1 -0 -0 -0 -0 -1 -1 -1 -0 -1 -1 -0
8 9 8 9 11 16 16 12 8 8 8 6 5 5 4 4 3 3 2 2 2 1 1 1 1 1 1 1 1 1 1 1 1 0 1 0 -0 0 0 0 0 0 -0 -0 -0 -1 -0 -0 -0
7 8 9 14 14 12 12 12 7 7 7 6 5 5 4 4 3 3 2 2 2 2 1 1 1 1 1 1 1 1 1 1 2 1 0 1 1 -0 -0 -0 -0 -0 -0 -0 0 0 -0 0 0